EW7704 Weather Reports


Display with metric or nautical units.
time (UTC)temp
F
wind
direction
speed
MPH
gust
MPH
rain 1hr
in
rain 24hr
in
rain mn
in
humidity
%
barometer
mb
20260507223036 72 223 3.0 7.0 0.00 0.00 0.00 26 1009.3
20260507222534 72 188 2.0 7.0 0.00 0.00 0.00 24 1009.2
20260507222034 72 215 2.0 7.0 0.00 0.00 0.00 26 1009.4
20260507221533 72 177 1.0 9.0 0.00 0.00 0.00 24 1009.5
20260507221032 72 216 3.0 8.0 0.00 0.00 0.00 23 1009.6
20260507220530 72 219 2.0 7.0 0.00 0.00 0.00 24 1009.8
20260507220030 72 193 4.0 13.0 0.00 0.00 0.00 25 1009.8
20260507215529 72 253 3.0 13.0 0.00 0.00 0.00 25 1009.9
20260507215027 72 216 4.0 9.0 0.00 0.00 0.00 27 1010.1
20260507214528 72 230 4.0 18.0 0.00 0.00 0.00 25 1010.1
20260507214026 72 250 6.0 18.0 0.00 0.00 0.00 24 1010.3
20260507213528 72 205 6.0 14.0 0.00 0.00 0.00 25 1010.3
20260507213028 72 238 4.0 11.0 0.00 0.00 0.00 27 1010.4
20260507212525 72 213 3.0 12.0 0.00 0.00 0.00 28 1010.6
20260507212023 72 207 5.0 13.0 0.00 0.00 0.00 25 1010.9
20260507211522 72 300 4.0 12.0 0.00 0.00 0.00 27 1010.9
20260507211020 71 40 5.0 12.0 0.00 0.00 0.00 27 1011.1
20260507210520 72 158 4.0 11.0 0.00 0.00 0.00 27 1011.2
20260507210020 72 158 5.0 10.0 0.00 0.00 0.00 27 1011.3
20260507205519 72 161 4.0 11.0 0.00 0.00 0.00 29 1011.5
20260507205022 72 179 5.0 10.0 0.00 0.00 0.00 26 1011.5
20260507204517 73 200 3.0 10.0 0.00 0.00 0.00 29 1011.7
20260507204016 72 177 3.0 10.0 0.00 0.00 0.00 29 1011.8
20260507203515 72 185 3.0 10.0 0.00 0.00 0.00 30 1011.9
20260507203014 72 208 4.0 16.0 0.00 0.00 0.00 27 1011.9
20260507202513 71 171 6.0 14.0 0.00 0.00 0.00 28 1011.9
20260507202013 71 178 5.0 10.0 0.00 0.00 0.00 29 1011.9
20260507201515 71 198 4.0 12.0 0.00 0.00 0.00 28 1012.1
20260507201011 71 203 2.0 12.0 0.00 0.00 0.00 31 1012.2
20260507200510 70 163 4.0 11.0 0.00 0.00 0.00 30 1012.3
20260507200009 70 45 3.0 14.0 0.00 0.00 0.00 30 1012.4
20260507195507 70 51 5.0 14.0 0.00 0.05 0.00 30 1012.5
20260507195007 70 81 3.0 9.0 0.00 0.05 0.00 29 1012.7
20260507194511 70 360 3.0 13.0 0.00 0.05 0.00 29 1012.8
20260507194005 69 360 5.0 13.0 0.00 0.05 0.00 31 1012.9
20260507193506 69 54 4.0 10.0 0.00 0.05 0.00 29 1013.0
20260507193003 69 53 4.0 13.0 0.00 0.05 0.00 31 1013.1
20260507192503 69 46 3.0 13.0 0.00 0.05 0.00 30 1013.1
20260507192004 69 42 4.0 13.0 0.00 0.05 0.00 32 1013.2
20260507191502 69 43 5.0 13.0 0.00 0.05 0.00 31 1013.3
20260507191103 69 53 5.0 11.0 0.00 0.05 0.00 31 1013.3
20260507190559 69 36 4.0 10.0 0.00 0.05 0.00 32 1013.4
20260507190059 69 34 4.0 13.0 0.00 0.05 0.00 33 1013.4
20260507185557 68 27 5.0 13.0 0.00 0.17 0.00 33 1013.6
20260507185056 68 33 6.0 13.0 0.00 0.17 0.00 33 1013.6
20260507184556 68 44 7.0 13.0 0.00 0.17 0.00 32 1013.7
20260507184055 68 44 4.0 11.0 0.00 0.17 0.00 34 1013.8
20260507183553 67 42 3.0 11.0 0.00 0.17 0.00 35 1014.0
20260507183055 66 41 4.0 9.0 0.00 0.17 0.00 34 1014.2
20260507182550 66 208 3.0 11.0 0.00 0.17 0.00 36 1014.2
20260507182049 65 243 4.0 11.0 0.00 0.17 0.00 36 1014.4
20260507181549 64 49 4.0 10.0 0.00 0.17 0.00 37 1014.5
20260507181047 64 360 4.0 10.0 0.00 0.17 0.00 36 1014.6
20260507180545 64 51 2.0 10.0 0.00 0.17 0.00 38 1014.8
20260507180045 63 62 3.0 12.0 0.00 0.17 0.00 38 1015.0
20260507175543 62 360 3.0 9.0 0.00 0.34 0.00 38 1015.0
20260507175042 62 80 2.0 7.0 0.00 0.34 0.00 39 1015.0
20260507174549 61 360 2.0 5.0 0.00 0.34 0.00 41 1015.1
20260507174039 60 91 2.0 6.0 0.00 0.34 0.00 41 1015.2
20260507173538 60 75 2.0 6.0 0.00 0.34 0.00 43 1015.3
20260507173045 60 113 1.0 7.0 0.00 0.34 0.00 43 1015.4
20260507172538 60 107 3.0 7.0 0.00 0.34 0.00 41 1015.4
20260507172036 60 109 1.0 3.0 0.00 0.34 0.00 42 1015.5
20260507171546 60 79 0.0 4.0 0.00 0.34 0.00 42 1015.6
20260507171034 59 76 2.0 4.0 0.00 0.34 0.00 42 1015.7
20260507170535 60 103 1.0 4.0 0.00 0.34 0.00 46 1015.8
20260507170033 59 92 1.0 3.0 0.00 0.34 0.00 44 1015.9
20260507165534 59 75 0.0 3.0 0.00 0.40 0.00 43 1015.8
20260507165033 59 84 1.0 3.0 0.00 0.40 0.00 43 1015.9
20260507164536 59 82 1.0 3.0 0.00 0.40 0.00 42 1016.0
20260507164031 59 88 0.0 3.0 0.00 0.40 0.00 43 1016.0
20260507163530 59 80 1.0 4.0 0.00 0.40 0.00 43 1015.9
20260507163030 59 101 1.0 4.0 0.00 0.40 0.00 44 1015.9
20260507162530 59 88 1.0 2.0 0.00 0.40 0.00 46 1016.0
20260507162029 58 84 0.0 2.0 0.00 0.40 0.00 45 1016.1
20260507161539 58 78 0.0 3.0 0.00 0.40 0.00 47 1016.1
20260507161028 58 70 1.0 3.0 0.00 0.40 0.00 44 1016.1
20260507160526 58 82 0.0 3.0 0.00 0.40 0.00 45 1016.3
20260507160034 58 83 0.0 4.0 0.00 0.40 0.00 45 1016.3
20260507155524 59 96 0.0 3.0 0.00 0.45 0.00 49 1016.4
20260507155025 59 73 0.0 4.0 0.00 0.45 0.00 49 1016.5
20260507154530 58 71 1.0 4.0 0.00 0.45 0.00 49 1016.5
20260507154022 58 72 1.0 4.0 0.00 0.45 0.00 50 1016.5
20260507153521 57 42 1.0 4.0 0.00 0.45 0.00 55 1016.6
20260507153019 56 39 1.0 6.0 0.00 0.45 0.00 54 1016.5
20260507152517 55 97 2.0 6.0 0.00 0.45 0.00 56 1016.5
20260507152017 55 114 2.0 4.0 0.00 0.45 0.00 55 1016.7
20260507151530 54 123 1.0 4.0 0.00 0.45 0.00 54 1016.7
20260507151014 54 113 1.0 4.0 0.00 0.45 0.00 54 1016.8
20260507150515 54 113 2.0 4.0 0.00 0.45 0.00 51 1016.9
20260507150014 54 199 1.0 3.0 0.00 0.45 0.00 51 1017.0
20260507145512 54 101 0.0 4.0 0.00 0.47 0.00 53 1017.1
20260507145012 54 114 1.0 6.0 0.00 0.47 0.00 54 1017.0
20260507144510 54 112 3.0 6.0 0.00 0.47 0.00 52 1017.0
20260507144010 53 74 2.0 4.0 0.00 0.47 0.00 53 1017.1
20260507143510 53 92 1.0 3.0 0.00 0.47 0.00 52 1017.1
20260507143007 53 121 1.0 3.0 0.00 0.47 0.00 55 1017.0
20260507142505 53 133 0.0 2.0 0.00 0.47 0.00 56 1017.0
20260507142005 52 133 0.0 2.0 0.00 0.47 0.00 58 1016.9
20260507141504 52 123 0.0 4.0 0.00 0.47 0.00 57 1017.1
20260507141007 52 116 1.0 6.0 0.00 0.47 0.00 56 1017.3
20260507140503 52 105 2.0 6.0 0.00 0.47 0.00 55 1017.2
20260507140001 52 86 2.0 4.0 0.00 0.48 0.00 57 1017.2
20260507135502 51 129 1.0 5.0 0.00 0.48 0.00 55 1017.2
20260507135004 52 88 0.0 5.0 0.00 0.48 0.00 53 1017.1
20260507134502 52 59 1.0 5.0 0.00 0.48 0.00 53 1017.1
20260507134059 51 51 0.0 5.0 0.00 0.48 0.00 54 1017.0
20260507133559 50 55 2.0 5.0 0.00 0.48 0.00 53 1017.1
20260507133100 49 51 0.0 5.0 0.00 0.48 0.00 58 1017.2
20260507132555 48 15 0.0 2.0 0.00 0.48 0.00 61 1017.3
20260507132054 47 26 0.0 3.0 0.00 0.48 0.00 61 1017.3
20260507131609 46 125 0.0 3.0 0.00 0.48 0.00 61 1017.3
20260507131053 45 146 0.0 2.0 0.00 0.48 0.00 62 1017.3
20260507130550 44 34 1.0 2.0 0.00 0.48 0.00 65 1017.1
20260507130048 43 360 0.0 2.0 0.00 0.48 0.00 66 1017.2
20260507125547 42 360 1.0 3.0 0.00 0.48 0.00 68 1017.2
20260507125045 42 360 0.0 3.0 0.00 0.48 0.00 68 1017.2
20260507124545 41 360 1.0 3.0 0.00 0.48 0.00 67 1017.1
20260507124047 41 360 0.0 3.0 0.00 0.48 0.00 69 1017.1
20260507123543 40 360 1.0 3.0 0.00 0.48 0.00 70 1017.2
20260507123043 40 360 0.0 2.0 0.00 0.48 0.00 71 1017.2
20260507122545 40 360 0.0 3.0 0.00 0.48 0.00 69 1017.1
20260507122045 39 360 1.0 3.0 0.00 0.48 0.00 69 1017.1
20260507121542 39 360 0.0 2.0 0.00 0.48 0.00 70 1017.2
20260507121044 39 360 1.0 2.0 0.00 0.48 0.00 69 1017.1
20260507120541 39 360 0.0 2.0 0.00 0.48 0.00 68 1017.1
20260507120040 39 360 0.0 3.0 0.00 0.48 0.00 68 1017.1
20260507115541 39 360 0.0 3.0 0.00 0.48 0.00 69 1017.0
20260507115040 39 360 1.0 4.0 0.00 0.48 0.00 69 1017.0
20260507114541 39 360 1.0 4.0 0.00 0.48 0.00 69 1017.1
20260507114041 39 360 1.0 4.0 0.00 0.48 0.00 69 1017.1
20260507113540 39 360 0.0 4.0 0.00 0.48 0.00 68 1017.1
20260507113039 39 360 1.0 4.0 0.00 0.48 0.00 67 1017.0
20260507112539 40 360 1.0 3.0 0.00 0.48 0.00 67 1017.0
20260507112039 39 360 0.0 2.0 0.00 0.48 0.00 69 1017.1
20260507111539 38 360 0.0 2.0 0.00 0.48 0.00 70 1017.0
20260507111037 38 360 0.0 4.0 0.00 0.48 0.00 71 1017.1
20260507110537 38 360 1.0 4.0 0.00 0.48 0.00 70 1017.1
20260507110048 38 360 1.0 4.0 0.00 0.48 0.00 70 1017.2
20260507105536 38 360 2.0 4.0 0.00 0.48 0.00 70 1017.2
20260507105037 38 360 1.0 3.0 0.00 0.48 0.00 68 1017.2
20260507104536 39 360 0.0 2.0 0.00 0.48 0.00 67 1017.2
20260507104037 38 360 0.0 2.0 0.00 0.48 0.00 68 1017.1
20260507103536 38 360 0.0 2.0 0.00 0.48 0.00 68 1017.1
20260507103035 38 360 0.0 2.0 0.00 0.48 0.00 68 1017.1
20260507102534 38 360 0.0 1.0 0.00 0.48 0.00 67 1017.3
20260507102034 39 360 0.0 2.0 0.00 0.48 0.00 66 1017.4
20260507101541 39 360 0.0 2.0 0.00 0.48 0.00 64 1017.2
20260507101033 40 360 0.0 2.0 0.00 0.48 0.00 62 1017.4
20260507100531 40 360 0.0 2.0 0.00 0.48 0.00 62 1017.5
20260507100036 40 360 0.0 1.0 0.00 0.48 0.00 62 1017.6
20260507095531 40 360 0.0 2.0 0.00 0.48 0.00 63 1017.6
20260507095031 40 360 0.0 2.0 0.00 0.48 0.00 63 1017.5
20260507094531 40 360 0.0 2.0 0.00 0.48 0.00 63 1017.6
20260507094029 40 360 0.0 4.0 0.00 0.48 0.00 62 1017.6
20260507093529 41 360 1.0 4.0 0.00 0.48 0.00 61 1017.7
20260507093029 41 360 1.0 5.0 0.00 0.48 0.00 60 1017.7
20260507092531 41 360 1.0 5.0 0.00 0.48 0.00 61 1017.8
20260507092027 41 360 2.0 4.0 0.00 0.48 0.00 61 1017.8
20260507091530 40 360 1.0 4.0 0.00 0.48 0.00 62 1017.8
20260507091025 40 360 1.0 4.0 0.00 0.48 0.00 62 1017.8
20260507090524 40 360 0.0 3.0 0.00 0.48 0.00 63 1017.8
20260507090034 40 360 0.0 4.0 0.00 0.48 0.00 64 1017.8
20260507085522 39 360 0.0 4.0 0.00 0.48 0.00 65 1017.8
20260507085023 40 360 0.0 5.0 0.00 0.48 0.00 64 1017.6
20260507084532 40 360 1.0 5.0 0.00 0.48 0.00 64 1017.7
20260507084023 39 360 1.0 4.0 0.00 0.48 0.00 64 1017.6
20260507083520 39 360 0.0 4.0 0.00 0.48 0.00 66 1017.6
20260507083018 38 360 0.0 3.0 0.00 0.48 0.00 69 1017.7
20260507082519 37 360 1.0 3.0 0.00 0.48 0.00 72 1017.7
20260507082020 36 360 0.0 2.0 0.00 0.48 0.00 73 1017.7
20260507081518 36 360 0.0 3.0 0.00 0.48 0.00 73 1017.8
20260507081016 37 360 1.0 3.0 0.00 0.48 0.00 71 1017.8
20260507080516 37 360 0.0 3.0 0.00 0.48 0.00 71 1018.0
20260507080014 37 360 0.0 3.0 0.00 0.48 0.00 71 1018.0
20260507075512 37 360 0.0 4.0 0.00 0.49 0.00 72 1018.0
20260507075011 37 360 1.0 6.0 0.00 0.49 0.00 73 1018.1
20260507074523 37 360 2.0 6.0 0.00 0.49 0.00 75 1018.2
20260507074008 37 360 0.0 4.0 0.00 0.49 0.00 76 1018.2
20260507073507 36 186 2.0 4.0 0.00 0.49 0.00 79 1018.3
20260507073006 35 122 0.0 4.0 0.00 0.49 0.00 83 1018.3
20260507072507 34 123 0.0 4.0 0.00 0.49 0.00 87 1018.4
20260507072002 34 119 1.0 4.0 0.00 0.49 0.00 89 1018.5
20260507071502 33 176 1.0 3.0 0.00 0.49 0.00 90 1018.5
20260507071103 33 125 0.0 2.0 0.00 0.49 0.00 90 1018.5
20260507070602 32 155 0.0 5.0 0.00 0.49 0.00 90 1018.6
20260507070108 32 151 1.0 5.0 0.00 0.49 0.00 90 1018.6
20260507065558 32 142 0.0 1.0 0.00 0.49 0.00 89 1018.7
20260507065159 32 142 0.0 2.0 0.00 0.49 0.00 89 1018.8
20260507064559 32 144 0.0 2.0 0.00 0.49 0.00 89 1018.9
20260507064055 32 148 0.0 2.0 0.00 0.49 0.00 89 1018.9
20260507063553 33 148 0.0 2.0 0.00 0.49 0.00 89 1018.9
20260507063055 33 172 0.0 2.0 0.00 0.49 0.00 89 1019.0
20260507062552 33 171 0.0 2.0 0.00 0.49 0.00 88 1019.1
20260507062051 33 175 0.0 1.0 0.00 0.49 0.00 88 1019.2
20260507061552 33 173 0.0 1.0 0.00 0.49 0.00 88 1019.3
20260507061049 33 173 0.0 1.0 0.00 0.49 0.00 88 1019.3
20260507060551 33 173 0.0 1.0 0.00 0.49 0.00 88 1019.3
20260507060103 33 173 0.0 3.0 0.00 0.49 0.00 88 1019.2
20260507055549 33 175 0.0 3.0 0.00 0.50 0.49 88 1019.2
20260507055045 33 165 0.0 2.0 0.00 0.50 0.49 88 1019.4
20260507054553 33 115 0.0 2.0 0.00 0.50 0.49 88 1019.4
20260507054046 34 117 0.0 2.0 0.00 0.50 0.49 89 1019.4
20260507053546 34 135 0.0 2.0 0.00 0.50 0.49 89 1019.5
20260507053051 33 138 0.0 2.0 0.00 0.50 0.49 89 1019.6
20260507052646 33 122 0.0 1.0 0.00 0.50 0.49 89 1019.8
20260507052045 33 109 0.0 2.0 0.00 0.50 0.49 89 1019.9
20260507051544 33 114 0.0 2.0 0.00 0.50 0.49 89 1020.0
20260507051044 33 102 0.0 1.0 0.00 0.50 0.49 89 1020.0
20260507050546 33 98 0.0 1.0 0.00 0.50 0.49 89 1020.1
20260507050044 33 98 0.0 0.0 0.00 0.50 0.49 88 1020.4
20260507045546 33 101 0.0 0.0 0.00 0.50 0.49 89 1020.3
20260507045045 33 103 0.0 0.0 0.00 0.50 0.49 88 1020.4
20260507044542 33 104 0.0 1.0 0.00 0.50 0.49 87 1020.4
20260507044042 34 101 0.0 1.0 0.00 0.50 0.49 87 1020.5
20260507043541 34 101 0.0 0.0 0.00 0.50 0.49 87 1020.6
20260507043042 34 104 0.0 0.0 0.00 0.50 0.49 86 1020.6
20260507042541 34 105 0.0 1.0 0.00 0.50 0.49 86 1020.6
20260507042043 35 104 0.0 1.0 0.00 0.50 0.49 85 1020.7
20260507041541 35 105 0.0 0.0 0.00 0.50 0.49 85 1020.8
20260507041040 35 106 0.0 2.0 0.00 0.50 0.49 84 1020.8
20260507040541 35 107 0.0 2.0 0.00 0.50 0.49 84 1020.8
20260507040042 35 106 0.0 1.0 0.00 0.50 0.49 84 1020.9
20260507035540 35 106 0.0 2.0 0.00 0.50 0.49 84 1020.8
20260507035041 35 106 0.0 3.0 0.00 0.50 0.49 85 1020.9
20260507034552 35 93 1.0 3.0 0.00 0.50 0.49 85 1020.9
20260507034040 35 101 0.0 0.0 0.00 0.50 0.49 85 1021.1
20260507033539 35 103 0.0 0.0 0.00 0.50 0.49 85 1021.2
20260507033043 35 100 0.0 0.0 0.00 0.50 0.49 84 1021.2
20260507032539 35 104 0.0 0.0 0.00 0.50 0.49 83 1021.1
20260507032039 36 96 0.0 0.0 0.00 0.50 0.49 82 1021.1
20260507031538 36 103 0.0 0.0 0.00 0.50 0.49 82 1021.0
20260507031038 36 104 0.0 0.0 0.00 0.50 0.49 81 1021.0
20260507030537 36 360 0.0 0.0 0.00 0.50 0.49 80 1021.1
20260507030039 37 360 0.0 0.0 0.00 0.50 0.49 80 1021.0
20260507025540 37 360 0.0 0.0 0.00 0.50 0.49 78 1020.8
20260507025038 37 360 0.0 0.0 0.00 0.50 0.49 79 1020.9
20260507024550 37 360 0.0 0.0 0.00 0.50 0.49 78 1020.9
20260507024038 37 360 0.0 0.0 0.00 0.50 0.49 78 1020.8
20260507023539 37 360 0.0 0.0 0.00 0.50 0.49 77 1020.9
20260507023037 38 360 0.0 0.0 0.00 0.50 0.49 76 1020.7
20260507022537 38 360 0.0 1.0 0.00 0.50 0.49 75 1020.7
20260507022038 38 360 0.0 1.0 0.00 0.50 0.49 74 1020.7
20260507021545 38 360 0.0 3.0 0.00 0.50 0.49 73 1020.7
20260507021036 39 360 0.0 3.0 0.00 0.50 0.49 72 1020.5
20260507020538 39 360 0.0 2.0 0.00 0.50 0.49 71 1020.6
20260507020036 39 360 0.0 3.0 0.00 0.50 0.49 71 1020.5
20260507015536 39 360 0.0 5.0 0.00 0.51 0.49 71 1020.5
20260507015036 40 360 2.0 5.0 0.00 0.51 0.49 70 1020.5
20260507014541 40 360 1.0 4.0 0.00 0.51 0.49 70 1020.5
20260507014036 40 360 0.0 4.0 0.00 0.51 0.49 70 1020.3
20260507013535 40 360 0.0 6.0 0.00 0.51 0.49 70 1020.4
20260507013035 40 360 2.0 6.0 0.00 0.51 0.49 69 1020.3
20260507012538 40 360 1.0 5.0 0.00 0.51 0.49 68 1020.4
20260507012037 40 360 1.0 5.0 0.00 0.51 0.49 69 1020.4
20260507011541 41 360 1.0 5.0 0.00 0.51 0.49 69 1020.4
20260507011036 41 360 1.0 6.0 0.00 0.51 0.49 68 1020.5
20260507010534 41 360 1.0 5.0 0.00 0.51 0.49 68 1020.5
20260507010034 41 360 1.0 8.0 0.00 0.51 0.49 68 1020.6
20260507005635 41 360 2.0 8.0 0.00 0.53 0.49 68 1020.5
20260507005033 41 360 1.0 5.0 0.00 0.53 0.49 66 1020.6
20260507004533 41 360 2.0 5.0 0.00 0.53 0.49 66 1020.5
20260507004035 41 360 0.0 6.0 0.00 0.53 0.49 67 1020.6
20260507003533 41 360 2.0 6.0 0.00 0.53 0.49 64 1020.7
20260507003033 42 284 1.0 5.0 0.00 0.53 0.49 65 1020.8
20260507002535 42 136 2.0 6.0 0.00 0.53 0.49 66 1020.8
20260507002032 42 96 2.0 6.0 0.00 0.53 0.49 65 1020.9
20260507001541 42 131 3.0 7.0 0.00 0.53 0.49 66 1020.9
20260507001034 42 167 2.0 5.0 0.00 0.53 0.49 66 1020.9
20260507000531 42 198 3.0 5.0 0.00 0.53 0.49 65 1020.9
20260507000033 42 165 1.0 7.0 0.00 0.53 0.49 64 1021.1
20260506235531 42 14 1.0 10.0 0.00 0.53 0.49 66 1021.2
20260506235030 42 202 2.0 10.0 0.00 0.53 0.49 67 1021.2
20260506234531 43 112 0.0 4.0 0.00 0.53 0.49 66 1021.3
20260506234031 42 175 1.0 9.0 0.00 0.53 0.49 67 1021.4
20260506233531 42 109 5.0 9.0 0.00 0.53 0.49 64 1021.4
20260506233030 42 158 1.0 8.0 0.00 0.53 0.49 68 1021.4
20260506232530 42 186 3.0 8.0 0.00 0.53 0.49 66 1021.5
20260506232030 42 126 0.0 7.0 0.00 0.53 0.49 68 1021.5
20260506231530 42 99 2.0 7.0 0.00 0.53 0.49 68 1021.4
20260506231029 41 121 2.0 7.0 0.00 0.53 0.49 68 1021.4
20260506230529 42 160 4.0 7.0 0.00 0.53 0.49 66 1021.4
20260506230030 42 313 3.0 7.0 0.00 0.53 0.49 68 1021.4
20260506225529 42 203 2.0 7.0 0.00 0.57 0.49 67 1021.5
20260506225029 43 88 2.0 8.0 0.00 0.57 0.49 66 1021.5
20260506224528 43 202 1.0 7.0 0.00 0.57 0.49 69 1021.5
20260506224028 42 217 2.0 8.0 0.00 0.57 0.49 68 1021.5